OBJECT A, 64048

Orbit data source: Space-Track

You're viewing an Uncataloged Satellite

Recently launched and/or uncataloged satellites may have evolving metadata. Metadata may include but not limited to: Owner, Maufacturer, Bus, Motor, and Mission.

OBJECT A, 64048 is a Chinese satellite in SSO that was launched on Sat, 17 May 2025 UTC via a ZHUQUE-2E launch vehicle from the Jiuquan Satellite Launch Center, China (JSC). Unknown objects in Earth's orbit typically refer to objects detected orbiting the Earth but have not yet been identified or cataloged. These objects could be anything from previously untracked satellites, spent rocket stages, debris from satellite collisions, or even natural meteoroids temporarily captured by Earth's gravity.

Loading next visibility...
Identifier
64048, 2025-103A
Orbit
SSO
Last TLE update
6 hours ago
Origin
Flag of CNCTYK/CUGW (CN / PRC)
Manufacturer
Changsha Tianyi
Mission
Operational Commercial Imaging
Bus & Motor
TY, Unknown motor
Mass
~50 kg wet, ~50 kg dry
Launch date (UTC)
2025-05-17 (2 months ago)
Launch vehicle
ZHUQUE-2E
Launch site
Jiuquan Satellite Launch Center, China (JSC)
Object type
Unknown
Shape & HBR
Box + 2 Pan, 0.5 m
Radar Cross Section
0.255 m², Medium (>0.1 m² and < 1m²)

Expand to show TLE details & history

TLE from 6 hours ago
0 OBJECT A
1 64048U 25103A   25211.59078549  .00006680  00000-0  35659-3 0  9992
2 64048  97.4112 285.3971 0003355 221.1435 138.9545 15.15449485 11268
Epoch: 2025-07-30T14:10Z
TLE epoch observation values (Epoch: 2025-07-30T14:10:43.866Z)
Latitude
-0.00002°
Longitude
124.24651°
Altitude
524.444 km
Speed
7.6 km/s
True Right ascension
19h 01m 35s
True Declination
0° 00' 00"
Sunlit
Object was in full shadow at epoch
Visualization orbit readout
Latitude
-27.75799°
Longitude
-59.42703°
Altitude
527.823 km
Speed
7.599 km/s
Apparent Right ascension
03h 14m 18s
Apparent Declination
-61° 47' 23"
Sunlit
Object is in daylight
Visualization observer readout
Local Sidereal Time
09:25:09
Azimuth
215.517° SW
Elevation
-35.633°
Doppler factor
1
Orbital elements
Apogee altitude
518.9 km
Perigee altitude
514.273 km
Semi-major axis
6,894.723 km
Eccentricity
0.00034
Inclination
97.4112°
RAAN
285.3971°
Arg. of periapsis
221.1435°
True anomaly
138.97974°
Mean anomaly
138.9545°
Eccentric anomaly
138.96712°
Mean motion
3.79112 °/min
Orbital period
94.96 mins
BSTAR
0.00035659
Loading maneuver chart data...
Loading SW <> Apogee altitude chart data...
Loading historical data...
Loading historical data...
Loading historical data...
Loading historical data...
Loading historical data...
Loading historical data...
Loading historical data...
|